Regional Weather Roundup
Issued by NWS

Home | Current Version | Previous Version | Graphics & Text | Print | Product List | Glossary On
Versions: 1 2 3 4 5 6 7 8 9 10 11 12 13 14 15 16 17 18 19 20 21 22 23 24 25 26 27 28 29 30 31 32 33 34 35 36 37 38 39 40 41 42 43 44 45 46 47 48 49 50
000
ASUS43 KLOT 192324
RWRIL

ILLINOIS REGIONAL WEATHER ROUNDUP
NATIONAL WEATHER SERVICE CHICAGO/ROMEOVILLE IL
600 PM CDT SUN APR 19 2015

NOTE: "FAIR" INDICATES FEW OR NO CLOUDS BELOW 12,000 FEET WITH NO
SIGNIFICANT WEATHER AND/OR OBSTRUCTIONS TO VISIBILITY.

* THESE STATIONS ARE NOT UNDER NWS QUALITY CONTROL. THEY ALSO MAY NOT
  REPORT WEATHER SUCH AS PRECIPITATION OR FOG.

ILZ001-002-007-009-015-016-024-200000-
NORTHWEST ILLINOIS

CITY           SKY/WX    TMP DP  RH WIND       PRES   REMARKS
MOLINE         LGT RAIN  57  54  89 S6        29.46F FOG
STERLING*      CLOUDY    57  54  88 W5        29.46F
SAVANNA*       LGT RAIN  59  53  83 SE3       29.47F
$$

ILZ003-004-008-010-011-017-018-200000-
NORTH CENTRAL ILLINOIS

CITY           SKY/WX    TMP DP  RH WIND       PRES   REMARKS
ROCKFORD       LGT RAIN  61  46  57 E10       29.48F
FREEPORT*      LGT RAIN  61  49  65 CALM      29.49F
ROCHELLE*      LGT RAIN  59  53  80 E7        29.47F
DE KALB*       LGT RAIN  54  48  81 E13       29.49F
PERU*          LGT RAIN  58  54  86 CALM      29.47F
$$

ILZ005-006-012>014-019>023-200000-
NORTHEAST ILLINOIS

CITY           SKY/WX    TMP DP  RH WIND       PRES   REMARKS
CHICAGO-OHARE  RAIN      51  49  92 NE7       29.48F FOG
CHICAGO-MIDWAY LGT RAIN  55  53  93 NE16      29.47F FOG
AURORA         LGT RAIN  56  51  84 E8        29.47F
LANSING*       LGT RAIN  55  52  90 E8        29.46F
JOLIET*        HVY RAIN  56  55  94 NE9       29.46F
WAUKEGAN       LGT RAIN  46  43  89 N7        29.52F FOG
DUPAGE AIRPORT RAIN      54  51  90 NE8       29.47F FOG
KANKAKEE*      DRIZZLE   55  54  96 NE10      29.43F
WHEELING       RAIN      49  46  90 NE3       29.50F FOG
MORRIS*        RAIN      55  53  93 NE3       29.44F
ROMEOVILLE*    RAIN      55  52  91 NE12      29.46F
NORTHERLY ISL    N/A     50  48  93 NE8         N/A
$$

LMZ740>746-200000-
SOUTHERN LAKE MICHIGAN

STATION/POSITION SKY/WX   TEMP    WIND        PRES    VSBY  WAVE
                          AIR SEA DIR/SP/G                  HT/PER
                          (F)     (DEG/KT/KT) (MB)    (MI)  (FT/S)
HARRISON CRIB              48     360/  3/  5   N/A
BURNHAM HARBOR             50      30/  7/  9   N/A
CALUMET HARBOR             51      40/  3/  5   N/A
BURNS HARBOR               54      80/ 11/ 15 1000.0F
MICHIGAN CITY              53      60/ 11/ 16   N/A
MICHIGAN CITY 6N           50 44  100/ 12/ 16   N/A           1/ 3
$$

ILZ025>027-034>036-040-047-049-050-058-095>099-200000-
WEST-CENTRAL ILLINOIS

CITY           SKY/WX    TMP DP  RH WIND       PRES   REMARKS
QUINCY         LGT RAIN  58  55  90 N6        29.49F
GALESBURG*     RAIN      57  55  92 CALM      29.48F
MACOMB*        LGT RAIN  60  60  97 SW6       29.51S
JACKSONVILLE*  LGT RAIN  60  59  95 NW3       29.49F
PITTSFIELD*    LGT RAIN  61  57  88 NW3       29.48F
$$

ILZ028>032-037-038-041>044-048-051>054-059>061-200000-
CENTRAL ILLINOIS

CITY           SKY/WX    TMP DP  RH WIND       PRES   REMARKS
PONTIAC        LGT RAIN  56  55  97 NE12      29.45F
BLOOMINGTON    LGT RAIN  55  55 100 N8        29.45F VSB 1
DECATUR        CLOUDY    57  55  93 N5        29.43F FOG
PEORIA         LGT RAIN  58  55  90 N3        29.47S FOG
LACON*         RAIN      57  55  92 N3        29.45F
LINCOLN*       DRIZZLE   57  56  95 NE3       29.44S
SPRINGFIELD    HVY RAIN  59  57  93 W10       29.48S FOG
TAYLORVILLE    DRZL/FOG  57  55  94 W6        29.45S VSB 1
$$

ILZ033-039-045-046-055>057-062-063-200000-
EAST-CENTRAL ILLINOIS

CITY           SKY/WX    TMP DP  RH WIND       PRES   REMARKS
CHAMPAIGN      LGT RAIN  57  57 100 N5        29.40F FOG
DANVILLE*      RAIN      58  57  97 E7        29.37F
RANTOUL*       RAIN      58  57  97 N3        29.40F
MATTOON        LGT RAIN  60  59  96 SW9       29.40S FOG
PARIS*         RAIN      60  60 100 SE3       29.40F
$$

ILZ079-100>102-200000-
SOUTHWEST ILLINOIS

CITY           SKY/WX    TMP DP  RH WIND       PRES   REMARKS
ALTON          CLOUDY    59  59 100 W7        29.49R
BELLEVILLE     CLOUDY    61  61 100 W8        29.48S
CAHOKIA*       CLOUDY    62  58  86 W8        29.49F
SPARTA*        CLOUDY    62  60  94 W6        29.50S
$$

ILZ064>066-069>071-074>076-080>082-084>086-088>090-092>094-200000-
SOUTH-CENTRAL ILLINOIS

CITY           SKY/WX    TMP DP  RH WIND       PRES   REMARKS
CARBONDALE     CLOUDY    64  60  87 W9        29.51R
CAIRO*         PTSUNNY   67  63  85 W9        29.53S
EFFINGHAM*     DRIZZLE   60  57  91 SW9       29.45S
MARION         PTSUNNY   64  61  88 W14       29.51R
MT. VERNON     CLOUDY    61  55  82 W8        29.47S
CENTRALIA*     LGT RAIN  60  58  93 SW10      29.46F
SALEM*         LGT RAIN  62  59  91 W8        29.46F
METROPOLIS*    CLOUDY    67  64  90 W8G17     29.53R
$$

ILZ067-068-072-073-078-083-087-091-200000-
SOUTHEAST ILLINOIS

CITY           SKY/WX    TMP DP  RH WIND       PRES   REMARKS
LAWRENCEVILLE  HVY RAIN  63  62  97 W17       29.41S FOG
FLORA*         RAIN      60  59  97 W13G21    29.46S
FAIRFIELD*     LGT RAIN  60  60  97 W9        29.44F
HARRISBURG*    PTSUNNY   64  63  97 W13       29.50R
ROBINSON*      RAIN      65  64  95 S10       29.40F
CARMI*         LGT RAIN  62  57  84 W17       29.44R
$$

ABBREVIATIONS USED IN REMARKS
   TC - TEMPERATURE IN CELSIUS
  WCI - WIND CHILL INDEX
   HX - HEAT INDEX
  VSB - VISIBILITY
$$



USA.gov is the U.S. government's official web portal to all federal, state and local government web resources and services.